When you browse on this site, cookies collect data to enhance your experience and personalize the content and advertising you see.
Visit our Privacy Policy to learn more. By continuing to use the site, you agree to this use of cookies and data.
  • In Österreich
  • Länderverzeichnis
  • Für 7 Tage
  • Wassertemperatur
  • Satellitenkarten
  • Wetterkarte
  • News
  • Widgets
  • user-avatar
    Anmelden

    Stündliche Wetter Roseau

    Heute, 17 Februar, Sonntag

    Zeit Temperatur Niederschläge Wind Luftdruck Luftfeuchtigkeit
    00:00 +28°C° 0.1 mm 6 m/S 762 mmHg 77%
    01:00 +27°C° 0.1 mm 6 m/S 762 mmHg 76%
    02:00 +27°C° 0.1 mm 6 m/S 762 mmHg 76%
    03:00 +27°C° 0.1 mm 6 m/S 762 mmHg 76%
    04:00 +27°C° 0.1 mm 5 m/S 762 mmHg 76%
    05:00 +27°C° 0.1 mm 5 m/S 762 mmHg 76%
    06:00 +27°C° 0 mm 6 m/S 763 mmHg 74%
    07:00 +28°C° 0 mm 6 m/S 763 mmHg 73%
    08:00 +28°C° 0 mm 6 m/S 764 mmHg 71%
    09:00 +28°C° 0 mm 7 m/S 764 mmHg 69%
    10:00 +29°C° 0 mm 7 m/S 764 mmHg 67%
    11:00 +29°C° 0 mm 7 m/S 764 mmHg 65%
    12:00 +29°C° 0 mm 7 m/S 764 mmHg 65%
    13:00 +29°C° 0 mm 7 m/S 763 mmHg 64%
    14:00 +30°C° 0 mm 7 m/S 763 mmHg 64%
    15:00 +29°C° 0 mm 7 m/S 763 mmHg 65%
    16:00 +29°C° 0 mm 7 m/S 762 mmHg 67%
    17:00 +28°C° 0 mm 7 m/S 762 mmHg 68%
    18:00 +28°C° 0 mm 7 m/S 762 mmHg 69%
    19:00 +28°C° 0 mm 7 m/S 763 mmHg 70%
    20:00 +27°C° 0 mm 7 m/S 763 mmHg 71%
    21:00 +27°C° 0 mm 7 m/S 763 mmHg 71%
    22:00 +27°C° 0 mm 7 m/S 763 mmHg 70%
    23:00 +27°C° 0 mm 7 m/S 763 mmHg 70%

    Morgen, 18 Februar, Montag

    Zeit Temperatur Niederschläge Wind Luftdruck Luftfeuchtigkeit
    00:00 +27°C° 0 mm 7 m/S 763 mmHg 70%
    01:00 +27°C° 0 mm 7 m/S 763 mmHg 71%
    02:00 +27°C° 0 mm 7 m/S 762 mmHg 71%
    03:00 +27°C° 0 mm 7 m/S 762 mmHg 72%
    04:00 +27°C° 0 mm 7 m/S 762 mmHg 72%
    05:00 +27°C° 0 mm 7 m/S 762 mmHg 72%
    06:00 +27°C° 0.3 mm 7 m/S 762 mmHg 71%
    07:00 +28°C° 0.3 mm 7 m/S 763 mmHg 71%
    08:00 +28°C° 0.3 mm 8 m/S 763 mmHg 70%
    09:00 +28°C° 0.3 mm 8 m/S 764 mmHg 68%
    10:00 +29°C° 0.3 mm 8 m/S 764 mmHg 66%
    11:00 +29°C° 0.3 mm 8 m/S 764 mmHg 63%
    12:00 +29°C° 0.1 mm 8 m/S 764 mmHg 63%
    13:00 +29°C° 0.1 mm 7 m/S 763 mmHg 62%
    14:00 +29°C° 0.1 mm 7 m/S 763 mmHg 61%
    15:00 +29°C° 0.1 mm 7 m/S 763 mmHg 62%
    16:00 +29°C° 0.1 mm 7 m/S 762 mmHg 63%
    17:00 +29°C° 0.1 mm 7 m/S 762 mmHg 64%
    18:00 +28°C° 0.1 mm 7 m/S 762 mmHg 67%
    19:00 +28°C° 0.1 mm 7 m/S 763 mmHg 69%
    20:00 +27°C° 0.1 mm 7 m/S 763 mmHg 72%
    21:00 +27°C° 0.1 mm 8 m/S 763 mmHg 72%
    22:00 +27°C° 0.1 mm 8 m/S 764 mmHg 71%
    23:00 +27°C° 0.1 mm 8 m/S 764 mmHg 71%

    übermorgen, 19 Februar, Dienstag

    Zeit Temperatur Niederschläge Wind Luftdruck Luftfeuchtigkeit
    00:00 +27°C° 0 mm 8 m/S 763 mmHg 69%
    01:00 +27°C° 0 mm 8 m/S 763 mmHg 67%
    02:00 +28°C° 0 mm 8 m/S 762 mmHg 65%
    03:00 +27°C° 0 mm 8 m/S 762 mmHg 65%
    04:00 +27°C° 0 mm 8 m/S 762 mmHg 65%
    05:00 +27°C° 0 mm 8 m/S 762 mmHg 66%
    06:00 +28°C° 0 mm 8 m/S 762 mmHg 65%
    07:00 +28°C° 0 mm 8 m/S 763 mmHg 65%
    08:00 +28°C° 0 mm 8 m/S 763 mmHg 64%
    09:00 +29°C° 0 mm 8 m/S 763 mmHg 64%
    10:00 +29°C° 0 mm 8 m/S 764 mmHg 63%
    11:00 +31°C° 0 mm 8 m/S 764 mmHg 63%
    12:00 +31°C° 0.1 mm 8 m/S 763 mmHg 63%
    13:00 +31°C° 0.1 mm 8 m/S 763 mmHg 63%
    14:00 +31°C° 0.1 mm 8 m/S 762 mmHg 63%
    15:00 +29°C° 0 mm 8 m/S 762 mmHg 65%
    16:00 +29°C° 0 mm 8 m/S 761 mmHg 67%
    17:00 +28°C° 0 mm 8 m/S 761 mmHg 69%
    18:00 +28°C° 0.1 mm 8 m/S 762 mmHg 70%
    19:00 +28°C° 0.1 mm 8 m/S 762 mmHg 71%
    20:00 +28°C° 0.1 mm 8 m/S 762 mmHg 72%
    21:00 +28°C° 0 mm 8 m/S 762 mmHg 73%
    22:00 +27°C° 0 mm 8 m/S 763 mmHg 74%
    23:00 +27°C° 0 mm 8 m/S 763 mmHg 75%

    20 Februar, Mittwoch

    Zeit Temperatur Niederschläge Wind Luftdruck Luftfeuchtigkeit
    00:00 +27°C° 0.2 mm 8 m/S 762 mmHg 75%
    01:00 +27°C° 0.2 mm 9 m/S 762 mmHg 76%
    02:00 +27°C° 0.2 mm 9 m/S 761 mmHg 76%
    03:00 +27°C° 0.2 mm 9 m/S 761 mmHg 76%
    04:00 +27°C° 0.2 mm 9 m/S 761 mmHg 75%
    05:00 +27°C° 0.2 mm 9 m/S 761 mmHg 75%
    06:00 +27°C° 0 mm 9 m/S 761 mmHg 74%
    07:00 +28°C° 0 mm 9 m/S 762 mmHg 73%
    08:00 +28°C° 0 mm 9 m/S 762 mmHg 72%
    09:00 +28°C° 0 mm 9 m/S 763 mmHg 70%
    10:00 +29°C° 0 mm 8 m/S 763 mmHg 67%
    11:00 +29°C° 0 mm 8 m/S 763 mmHg 65%
    12:00 +29°C° 0 mm 8 m/S 763 mmHg 65%
    13:00 +29°C° 0 mm 8 m/S 762 mmHg 65%
    14:00 +29°C° 0 mm 8 m/S 761 mmHg 65%
    15:00 +29°C° 0.1 mm 8 m/S 761 mmHg 68%
    16:00 +28°C° 0.1 mm 8 m/S 761 mmHg 71%
    17:00 +28°C° 0.1 mm 9 m/S 761 mmHg 73%
    18:00 +28°C° 0.1 mm 9 m/S 761 mmHg 73%
    19:00 +28°C° 0.1 mm 9 m/S 761 mmHg 72%
    20:00 +28°C° 0.1 mm 9 m/S 762 mmHg 72%
    21:00 +27°C° 0 mm 9 m/S 762 mmHg 73%
    22:00 +27°C° 0 mm 9 m/S 762 mmHg 73%
    23:00 +27°C° 0 mm 9 m/S 762 mmHg 74%

    21 Februar, Donnerstag

    Zeit Temperatur Niederschläge Wind Luftdruck Luftfeuchtigkeit
    00:00 +27°C° 0 mm 9 m/S 762 mmHg 73%
    01:00 +27°C° 0 mm 9 m/S 761 mmHg 72%
    02:00 +27°C° 0 mm 9 m/S 761 mmHg 71%
    03:00 +27°C° 0 mm 8 m/S 761 mmHg 71%
    04:00 +27°C° 0 mm 8 m/S 761 mmHg 71%
    05:00 +27°C° 0 mm 8 m/S 761 mmHg 72%
    06:00 +27°C° 0.1 mm 8 m/S 762 mmHg 72%
    07:00 +27°C° 0.1 mm 8 m/S 762 mmHg 71%
    08:00 +28°C° 0.1 mm 8 m/S 763 mmHg 71%
    09:00 +28°C° 0.1 mm 8 m/S 763 mmHg 68%
    10:00 +29°C° 0.1 mm 8 m/S 763 mmHg 64%
    11:00 +29°C° 0.1 mm 8 m/S 764 mmHg 61%
    12:00 +29°C° 0.2 mm 8 m/S 763 mmHg 64%
    13:00 +29°C° 0.2 mm 8 m/S 762 mmHg 67%
    14:00 +28°C° 0.2 mm 8 m/S 762 mmHg 70%
    15:00 +28°C° 0.2 mm 8 m/S 761 mmHg 70%
    16:00 +28°C° 0.2 mm 8 m/S 761 mmHg 70%
    17:00 +28°C° 0.2 mm 9 m/S 761 mmHg 70%
    18:00 +28°C° 0.1 mm 9 m/S 761 mmHg 71%
    19:00 +28°C° 0.1 mm 9 m/S 762 mmHg 72%
    20:00 +28°C° 0.1 mm 9 m/S 762 mmHg 73%
    21:00 +27°C° 0 mm 9 m/S 762 mmHg 73%
    22:00 +27°C° 0 mm 9 m/S 762 mmHg 73%
    23:00 +27°C° 0 mm 8 m/S 762 mmHg 73%

    22 Februar, Freitag

    Zeit Temperatur Niederschläge Wind Luftdruck Luftfeuchtigkeit
    00:00 +27°C° 0 mm 8 m/S 762 mmHg 74%
    01:00 +27°C° 0 mm 8 m/S 762 mmHg 75%
    02:00 +27°C° 0 mm 8 m/S 761 mmHg 76%
    03:00 +27°C° 0.2 mm 8 m/S 761 mmHg 76%
    04:00 +27°C° 0.2 mm 8 m/S 761 mmHg 76%
    05:00 +27°C° 0.2 mm 9 m/S 762 mmHg 76%
    06:00 +27°C° 0.1 mm 9 m/S 762 mmHg 73%
    07:00 +28°C° 0.1 mm 9 m/S 763 mmHg 71%
    08:00 +28°C° 0.1 mm 8 m/S 763 mmHg 68%
    09:00 +28°C° 0 mm 8 m/S 763 mmHg 67%
    10:00 +29°C° 0 mm 8 m/S 764 mmHg 65%
    11:00 +29°C° 0 mm 8 m/S 764 mmHg 64%
    12:00 +29°C° 0 mm 8 m/S 763 mmHg 64%
    13:00 +29°C° 0 mm 7 m/S 763 mmHg 65%
    14:00 +30°C° 0 mm 7 m/S 762 mmHg 65%
    15:00 +29°C° 0 mm 7 m/S 762 mmHg 66%
    16:00 +29°C° 0 mm 7 m/S 762 mmHg 68%
    17:00 +28°C° 0 mm 7 m/S 762 mmHg 69%
    18:00 +28°C° 0 mm 8 m/S 762 mmHg 71%
    19:00 +28°C° 0 mm 8 m/S 762 mmHg 73%
    20:00 +27°C° 0 mm 8 m/S 763 mmHg 75%
    21:00 +27°C° 0 mm 8 m/S 763 mmHg 75%
    22:00 +27°C° 0 mm 8 m/S 763 mmHg 74%
    23:00 +27°C° 0 mm 8 m/S 763 mmHg 74%
    Mehr zeigen